EW6162 Weather Reports


time (UTC)temp
C
wind
direction
speed
KPH
gust
KPH
rain 1hr
cm
rain 24hr
cm
rain mn
cm
humidity
%
barometer
mb
20260505152520 21 203 6.4 16.1 0.00 0.00 0.00 52 1013.9
20260505151601 21 225 4.8 9.7 0.00 0.00 0.00 54 1013.9
20260505150520 21 203 4.8 11.3 0.00 0.00 0.00 54 1013.9
20260505140520 18 180 4.8 8.0 0.00 0.00 0.00 64 1014.0
20260505124520 13 113 1.6 4.8 0.00 0.00 0.00 28 1013.8
20260505123540 12 113 3.2 6.4 0.00 0.00 0.00 14 1013.8
20260505122520 11 113 1.6 3.2 0.00 0.00 0.00 1 1013.6
20260505121520 11 113 1.6 3.2 0.00 0.00 0.00 1 1013.6
20260505120540 10 90 1.6 3.2 0.00 0.00 0.00 1 1013.7
20260505115520 8 90 1.6 3.2 0.00 0.00 0.00 4 1013.6
20260505114519 7 0.0 1.6 0.00 0.00 0.00 7 1013.4
20260505113519 6 0.0 1.6 0.00 0.00 0.00 11 1013.3
20260505112519 5 0.0 0.0 0.00 0.00 0.00 13 1013.0
20260505111520 5 0.0 0.0 0.00 0.00 0.00 18 1013.0
20260505110519 5 0.0 1.6 0.00 0.00 0.00 20 1012.8
20260505101519 5 0.0 0.0 0.00 0.00 0.00 24 1012.7
20260505100519 5 0.0 1.6 0.00 0.00 0.00 25 1012.9
20260505095519 5 0.0 0.0 0.00 0.00 0.00 25 1013.1
20260505094519 6 0.0 1.6 0.00 0.00 0.00 25 1012.9
20260505093521 6 0.0 1.6 0.00 0.00 0.00 20 1013.0
20260505092519 6 0.0 3.2 0.00 0.00 0.00 16 1013.1
20260505091519 6 0.0 0.0 0.00 0.00 0.00 22 1013.1
20260505090519 6 0.0 0.0 0.00 0.00 0.00 21 1012.9
20260505085519 6 0.0 0.0 0.00 0.00 0.00 23 1012.9
20260505084519 6 0.0 0.0 0.00 0.00 0.00 27 1012.8
20260505083519 6 0.0 1.6 0.00 0.00 0.00 28 1012.7
20260505082519 6 0.0 1.6 0.00 0.00 0.00 28 1012.6
20260505081559 6 0.0 1.6 0.00 0.00 0.00 27 1012.5
20260505080539 6 203 1.6 4.8 0.00 0.00 0.00 27 1012.4
20260505075519 7 0.0 1.6 0.00 0.00 0.00 26 1012.4
20260505074519 7 0.0 0.0 0.00 0.00 0.00 24 1012.2
20260505073519 7 203 1.6 3.2 0.00 0.00 0.00 24 1012.1
20260505072521 7 0.0 1.6 0.00 0.00 0.00 28 1012.2
20260505071521 7 0.0 1.6 0.00 0.00 0.00 28 1012.2
20260505070521 7 0.0 0.0 0.00 0.00 0.00 25 1012.2
20260505065519 7 0.0 1.6 0.00 0.00 0.00 28 1012.1
20260505064519 7 0.0 0.0 0.00 0.00 0.00 27 1012.2
20260505063519 7 0.0 1.6 0.00 0.00 0.00 29 1012.1
20260505062519 7 0.0 1.6 0.00 0.00 0.00 28 1012.0
20260505061519 7 203 1.6 3.2 0.00 0.00 0.00 34 1012.0
20260505060519 7 0.0 1.6 0.00 0.00 0.00 35 1011.8
20260505055542 8 0.0 3.2 0.00 0.00 0.00 34 1011.9
20260505054519 8 0.0 3.2 0.00 0.00 0.00 36 1011.9
20260505053521 8 0.0 3.2 0.00 0.00 0.00 39 1011.7
20260505052521 8 0.0 1.6 0.00 0.00 0.00 39 1011.7
20260505051521 8 0.0 1.6 0.00 0.00 0.00 41 1011.7
20260505050601 8 203 1.6 3.2 0.00 0.00 0.00 40 1011.8
20260505041520 9 203 1.6 1.6 0.00 0.00 0.00 42 1011.4
20260505040520 9 0.0 3.2 0.00 0.00 0.00 46 1011.3
20260505035520 9 0.0 0.0 0.00 0.00 0.00 53 1011.3
20260505034520 10 0.0 0.0 0.00 0.00 0.00 54 1011.5
20260505033540 10 0.0 1.6 0.00 0.00 0.00 55 1011.3
20260505031600 10 203 1.6 3.2 0.00 0.00 0.00 58 1011.4
20260505030520 11 0.0 1.6 0.00 0.00 0.00 61 1011.5
20260505025520 11 0.0 1.6 0.00 0.00 0.00 62 1011.5
20260505024520 11 0.0 0.0 0.00 0.00 0.00 63 1011.5
20260505023519 12 0.0 1.6 0.00 0.00 0.00 63 1011.5
20260505022520 12 203 1.6 3.2 0.00 0.00 0.00 65 1011.4
20260505021520 12 0.0 1.6 0.00 0.00 0.00 67 1011.4
20260505020519 13 0.0 0.0 0.00 0.00 0.00 69 1011.3
20260505015520 13 0.0 1.6 0.00 0.00 0.00 70 1011.2
20260505014520 14 0.0 0.0 0.00 0.00 0.00 70 1011.3
20260505013520 15 0.0 0.0 0.00 0.00 0.00 70 1011.2
20260505012519 15 0.0 1.6 0.00 0.00 0.00 70 1011.1
20260505011520 16 0.0 1.6 0.00 0.00 0.00 69 1011.2
20260505010542 17 0.0 1.6 0.00 0.00 0.00 67 1011.1
20260505005520 18 203 1.6 1.6 0.00 0.00 0.00 62 1011.0
20260505004521 18 0.0 0.0 0.00 0.00 0.00 61 1010.8
20260505003520 20 0.0 1.6 0.00 0.00 0.00 57 1010.9
20260505002519 21 0.0 1.6 0.00 0.00 0.00 53 1010.8
20260505001520 22 0.0 1.6 0.00 0.00 0.00 50 1010.9
20260505000520 22 225 1.6 3.2 0.00 0.00 0.00 48 1010.9
20260504235519 23 225 1.6 4.8 0.00 0.00 0.00 45 1010.7
20260504234519 23 225 3.2 6.4 0.00 0.00 0.00 44 1010.6
20260504233519 23 248 1.6 4.8 0.00 0.00 0.00 45 1010.6
20260504232559 23 248 3.2 6.4 0.00 0.00 0.00 44 1010.5
20260504231520 23 270 6.4 11.3 0.00 0.00 0.00 43 1010.6
20260504230520 23 270 6.4 16.1 0.00 0.00 0.00 44 1010.6
20260504225700 24 270 8.0 14.5 0.00 0.00 0.00 43 1010.6
20260504224519 24 270 4.8 9.7 0.00 0.00 0.00 43 1010.6
20260504223519 24 270 4.8 11.3 0.00 0.00 0.00 43 1010.6
20260504222520 24 270 11.3 22.5 0.00 0.00 0.00 42 1010.5
20260504221520 24 293 8.0 14.5 0.00 0.00 0.00 43 1010.7
20260504220519 25 270 11.3 19.3 0.00 0.00 0.00 43 1010.7
20260504215519 24 270 9.7 16.1 0.00 0.00 0.00 46 1010.7
20260504214519 25 225 4.8 14.5 0.00 0.00 0.00 44 1010.7
20260504213519 25 225 4.8 9.7 0.00 0.00 0.00 45 1010.7
20260504212521 24 270 6.4 14.5 0.00 0.00 0.00 46 1010.8
20260504211519 25 225 4.8 11.3 0.00 0.00 0.00 45 1010.8
20260504210519 25 203 8.0 16.1 0.00 0.00 0.00 41 1010.9
20260504205519 25 270 8.0 16.1 0.00 0.00 0.00 45 1011.1
20260504204519 25 293 8.0 14.5 0.00 0.00 0.00 46 1011.2
20260504203609 24 293 11.3 20.9 0.00 0.00 0.00 45 1011.2
20260504203021 24 180 8.0 14.5 0.00 0.00 0.00 46 1011.4
20260504202019 23 270 8.0 14.5 0.00 0.00 0.00 49 1011.4
20260504201019 23 270 8.0 16.1 0.00 0.00 0.00 50 1011.6
20260504200019 23 315 6.4 14.5 0.00 0.00 0.00 52 1011.7
20260504195019 23 270 8.0 19.3 0.00 0.00 0.00 49 1011.7
20260504194022 23 338 4.8 16.1 0.00 0.00 0.00 54 1012.1
20260504193021 23 248 4.8 11.3 0.00 0.00 0.00 50 1012.2
20260504192041 23 270 4.8 11.3 0.00 0.00 0.00 53 1012.5
20260504191021 23 0 3.2 8.0 0.00 0.00 0.00 53 1012.7
20260504190019 22 315 3.2 14.5 0.00 0.00 0.00 55 1012.9
20260504185021 22 293 6.4 11.3 0.00 0.00 0.00 54 1013.0
20260504184021 22 270 4.8 9.7 0.00 0.00 0.00 53 1013.2
20260504183039 22 158 3.2 6.4 0.00 0.00 0.00 51 1013.3
20260504182020 21 293 6.4 16.1 0.00 0.00 0.00 52 1013.4
20260504181020 21 293 4.8 12.9 0.00 0.00 0.00 54 1013.4
20260504180159 22 270 9.7 14.5 0.00 0.00 0.00 53 1013.6
20260504180143 21 277 9.7 14.5 0.00 0.00 0.00 53 1013.3
20260504175041 21 203 4.8 14.5 0.00 0.00 0.00 54 1013.9
20260504174021 21 293 4.8 12.9 0.00 0.00 0.00 54 1013.9
20260504173020 21 135 3.2 8.0 0.00 0.00 0.00 55 1014.0
20260504172020 20 113 4.8 8.0 0.00 0.00 0.00 55 1014.1
20260504171019 20 270 4.8 11.3 0.00 0.00 0.00 55 1014.3